This is the latest recevied weather packets stored in our database for station/object W1RCY. If no packets are shown the sender has not sent any weather packets the latest 10 day(s).
| Time | Temp. | Humidity | Pressure | Rain* | Wind** | Luminosity | Snow |
|---|---|---|---|---|---|---|---|
| 1777759937 | 7.78° C | 99% | 1008.6 hPa | 0 mm | - | 23 W/m² | - |
| 1777759633 | 7.78° C | 99% | 1008.6 hPa | 0 mm | - | 29 W/m² | - |
| 1777759330 | 7.78° C | 99% | 1008.7 hPa | 0 mm | - | 40 W/m² | - |
| 1777759027 | 7.78° C | 99% | 1008.7 hPa | 0 mm | - | 45 W/m² | - |
| 1777758724 | 7.78° C | 99% | 1008.6 hPa | 0 mm | - | 52 W/m² | - |
| 1777758421 | 7.78° C | 99% | 1008.8 hPa | 0 mm | - | 82 W/m² | - |
| 1777758118 | 7.78° C | 99% | 1008.8 hPa | 0 mm | - | 90 W/m² | - |
| 1777757815 | 7.78° C | 99% | 1008.8 hPa | 0 mm | - | 95 W/m² | - |
| 1777757512 | 7.78° C | 99% | 1008.8 hPa | 0 mm | - | 93 W/m² | - |
| 1777757211 | 7.78° C | 99% | 1008.8 hPa | 0 mm | - | 73 W/m² | - |
| 1777756909 | 7.78° C | 99% | 1009 hPa | 0 mm | - | 101 W/m² | - |
| 1777756604 | 7.78° C | 99% | 1009 hPa | 0 mm | - | 85 W/m² | - |
| 1777756301 | 7.78° C | 99% | 1008.8 hPa | 0 mm | - | 97 W/m² | - |
| 1777755999 | 7.78° C | 99% | 1008.9 hPa | 0 mm | - | 65 W/m² | - |
| 1777755696 | 7.78° C | 99% | 1008.9 hPa | 1.78 mm | - | 83 W/m² | - |
| 1777755392 | 7.78° C | 99% | 1009 hPa | 3.05 mm | - | 70 W/m² | - |
| 1777755089 | 7.78° C | 99% | 1008.9 hPa | 4.32 mm | - | 42 W/m² | - |
| 1777754786 | 7.78° C | 99% | 1009 hPa | 6.6 mm | - | 70 W/m² | - |
| 1777754484 | 7.22° C | 99% | 1009.2 hPa | 4.83 mm | - | 42 W/m² | - |
| 1777754181 | 7.78° C | 99% | 1009.3 hPa | 4.32 mm | - | 37 W/m² | - |
| 1777753878 | 7.78° C | 99% | 1009.3 hPa | 6.1 mm | - | 41 W/m² | - |
| 1777753573 | 7.78° C | 99% | 1009.2 hPa | 4.83 mm | - | 56 W/m² | - |
| 1777753272 | 7.78° C | 99% | 1009.1 hPa | 1.78 mm | - | 46 W/m² | - |
| 1777752968 | 7.78° C | 99% | 1009.1 hPa | 0 mm | - | 19 W/m² | - |
| 1777752665 | 7.78° C | 99% | 1009.1 hPa | 0 mm | - | 17 W/m² | - |
* Rain latest hour (hover to see other rain measurements)
** Current wind speed in m/s (hover to see current wind gust speed)